Regional Weather Roundup
Issued by NWS

Home | Current Version | Previous Version | Text Only | Print | Product List | Glossary Off
Versions: 1 2 3 4 5 6 7 8 9 10 11 12 13 14 15 16 17 18 19 20 21 22 23 24 25 26 27 28 29 30 31 32 33 34 35 36 37 38 39 40 41 42 43 44 45 46 47 48 49 50

000
ASUS43 KIND 221909
RWRIN

WEATHER ROUNDUP FOR INDIANA
NATIONAL WEATHER SERVICE INDIANAPOLIS IN
200 PM EST SAT NOV 22 2014

NOTE: "FAIR" INDICATES FEW OR NO CLOUDS BELOW 12,000 FEET WITH NO
SIGNIFICANT WEATHER AND/OR OBSTRUCTIONS TO VISIBILITY.

* - STATION DOES NOT REPORT WEATHER SUCH AS PRECIPITATION OR FOG.

+ - STATION NOT QUALITY CONTROLLED BY THE NATIONAL WEATHER SERVICE.
    USE DATA WITH CAUTION...ESPECIALLY DEWPOINT AND RELATIVE
    HUMIDITY OBSERVATIONS.

INZ001>003-010>013-019-020-222000-
NORTHWEST INDIANA

CITY           SKY/WX    TMP DP  RH WIND       PRES   REMARKS
GARY /AIRPORT/ LGT RAIN  46  41  81 SW6       29.94F
KNOX *+        CLOUDY    45  42  88 S9        29.96F
LA PORTE +     LGT RAIN  46  46  97 S9G16     29.96F
MICHIGAN CITY+ CLOUDY    45  43  93 S10       29.95F
MONTICELLO +   CLOUDY    48  46  90 S13       29.99F
RENSSELAER +   CLOUDY    50  46  87 SW17G23   29.97F
VALPARAISO     CLOUDY    45  42  89 S10       29.96F

$$

LMZ046-743>745-222000-
SOUTHERN LAKE MICHIGAN

STATION/POSITION TIME  TEMP WIND        PRES
                       AIR  DIR/SP/G
                 (UTC) (F)  (DEG/KT/KT) (MB)
MICHIGAN CITY    1900   45  170/ 15/ 19   N/A

$$

INZ004-005-014>016-021>024-222000-
NORTH CENTRAL INDIANA

CITY           SKY/WX    TMP DP  RH WIND       PRES   REMARKS
ELKHART        CLOUDY    45  39  81 SW8       29.98F
GOSHEN         CLOUDY    46  42  86 SW20G26   29.98F
LOGANSPORT +   LGT RAIN  46  43  87 S13       30.01F
PERU/GRISSOM   PTSUNNY   50  50 100 SW14      30.01F
ROCHESTER +    CLOUDY    46  45  93 S8        30.00F
SOUTH BEND     CLOUDY    44  41  89 SW15      29.97F

$$

INZ006>009-017-018-025>027-222000-
NORTHEAST INDIANA

CITY           SKY/WX    TMP DP  RH WIND       PRES   REMARKS
ANGOLA *+      CLOUDY    45  36  70 SW16      29.98F
FORT WAYNE     LGT RAIN  46  42  86 SW15      30.04F FOG
HUNTINGTON +   RAIN      46  43  89 SW12G20   30.02F

$$

INZ028-029-035-036-043>045-051>053-222000-
WEST CENTRAL INDIANA

CITY           SKY/WX    TMP DP  RH WIND       PRES   REMARKS
GREENCASTLE +  CLOUDY    54  43  66 S7        30.06F
LAFAYETTE      CLOUDY    53  45  74 S12G20    30.01F
TERRE HAUTE    CLOUDY    57  44  62 S14       30.06F

$$

INZ030>032-037>040-046>048-054>057-064-065-222000-
CENTRAL INDIANA

CITY           SKY/WX    TMP DP  RH WIND       PRES   REMARKS
ANDERSON       PTSUNNY   52  41  66 S17G24    30.07F
CP ATTERBURY + CLOUDY    57  39  51 SW17      30.11F
COLUMBUS       CLOUDY    55  43  62 S12       30.12F
INDIANAPOLIS   CLOUDY    52  44  74 S14       30.07F
-EAGLE CREEK   CLOUDY    55  43  63 SW16G25   30.06F
KOKOMO *+      CLOUDY    52  45  76 SW20G26   30.03F
MARION +       CLOUDY    48  40  75 SW16      30.04F
MT COMFORT *+  CLOUDY    52  37  58 S17       30.08F
SHELBYVILLE    LGT RAIN  53  44  71 S8        30.09F

$$

INZ033-034-041-042-049-050-058-059-222000-
EAST CENTRAL INDIANA

CITY           SKY/WX    TMP DP  RH WIND       PRES   REMARKS
MUNCIE         CLOUDY    52  42  69 S14G26    30.05F

$$

INZ060-061-067>069-081>083-085>088-222000-
SOUTHWEST INDIANA

CITY           SKY/WX    TMP DP  RH WIND       PRES   REMARKS
EVANSVILLE     PTSUNNY   62  40  44 S15       30.13F
HUNTINGBURG *+ PTSUNNY   59  39  47 S15G23    30.14F
WASHINGTON +   CLOUDY    59  45  60 S20G25    30.10F

$$

INZ062-063-066-070>080-084-089>092-222000-
SOUTH CENTRAL AND SOUTHEAST INDIANA

CITY           SKY/WX    TMP DP  RH WIND       PRES   REMARKS
BLOOMINGTON    CLOUDY    56  42  59 SW13      30.10F

$$




USA.gov is the U.S. government's official web portal to all federal, state and local government web resources and services.